Weather History for Mattoon, IL

Change the Weather History Date:

Friday, November 22, 2013

  Actual Average Record
Temperature  
Mean Temperature 40 °F 40 °F  
Max Temperature 49 °F 48 °F 69 °F (2010)
Min Temperature 30 °F 33 °F 12 °F (1964)
Degree Days  
Heating Degree Days 25 25  
Month to date heating degree days 465 440  
Since 1 July heating degree days 815 844  
Cooling Degree Days 0 0  
Month to date cooling degree days 0 0  
Year to date cooling degree days 1007 1057  
Moisture  
Dew Point 40 °F    
Average Humidity 88    
Maximum Humidity 100    
Minimum Humidity 76    
Precipitation  
Precipitation 0.00 in 0.11 in 1.86 in (1963)
Month to date precipitation 0.07 2.58  
Year to date precipitation 40.76 34.38  
Sea Level Pressure  
Sea Level Pressure 30.33 in    
Wind  
Wind Speed 14 mph (NNW)    
Max Wind Speed 24 mph    
Max Gust Speed 29 mph    
Visibility 5 miles    
Events Fog , Rain    
T = Trace of Precipitation, MM = Missing Value Source: NWS Daily Summary

Daily Weather History Graph

Daily Weather History Graph

Search for Another Location

Airport:

Trip Planner

Search our weather history database for the weather conditions in past years. The results will help you decide how hot, cold, wet, or windy it might be!

Date:

Astronomy

Nov. 22, 2013 Rise Set
Actual Time 6:45 AM CST 4:33 PM CST
Civil Twilight 6:15 AM CST 5:02 PM CST
Nautical Twilight 5:42 AM CST 5:35 PM CST
Astronomical Twilight 5:10 AM CST 6:07 PM CST
Moon 9:04 PM CST (11/22) 10:28 AM CST (11/22)
Length of Visible Light 10h 46m
Length of Day
9h 48m
Waning Gibbous, 78% of the Moon is Illuminated
Nov 22
Waning Gibbous
Nov 25
Last Quarter
Dec 2
New
Dec 9
First Quarter
Dec 17
Full

Hourly Weather History & Observations

Time (CST) Temp. Windchill Dew Point Humidity Pressure Visibility Wind Dir Wind Speed Gust Speed Precip Events Conditions
12:53 AM 48.9 °F - 48.0 °F 97% 30.18 in 0.5 mi NW 4.6 mph - N/A Fog Fog
1:53 AM 48.0 °F - 48.0 °F 100% 30.20 in 0.5 mi NW 5.8 mph - N/A Fog Fog
2:05 AM 48.0 °F - 48.0 °F 100% 30.19 in 2.0 mi NW 8.1 mph - N/A   Overcast
2:14 AM 48.0 °F - 48.0 °F 100% 30.19 in 3.0 mi NW 6.9 mph - N/A   Overcast
2:28 AM 48.0 °F - 48.0 °F 100% 30.19 in 1.5 mi NW 10.4 mph - N/A   Overcast
2:36 AM 48.0 °F - 46.9 °F 96% 30.19 in 0.2 mi NW 10.4 mph - N/A Fog Fog
2:53 AM 48.0 °F - 46.9 °F 96% 30.20 in 0.2 mi NW 8.1 mph - N/A Fog Fog
3:09 AM 48.0 °F - 46.9 °F 96% 30.19 in 0.5 mi NW 6.9 mph - N/A Fog Fog
3:19 AM 46.9 °F - 46.9 °F 100% 30.19 in 1.8 mi NW 8.1 mph - N/A   Overcast
3:28 AM 46.9 °F - 46.9 °F 100% 30.19 in 2.5 mi NNW 11.5 mph - N/A   Overcast
3:37 AM 46.9 °F - 46.9 °F 100% 30.19 in 3.0 mi NNW 9.2 mph - N/A   Overcast
3:44 AM 46.9 °F - 46.9 °F 100% 30.19 in 2.5 mi NNW 9.2 mph - N/A   Overcast
3:53 AM 46.9 °F - 46.9 °F 100% 30.21 in 3.0 mi North 9.2 mph - N/A   Overcast
4:48 AM 46.4 °F 41.5 °F 46.4 °F 100% 30.22 in 4.0 mi NNW 10.4 mph - N/A   Overcast
4:53 AM 46.0 °F 41.0 °F 46.0 °F 100% 30.23 in 4.0 mi NNW 10.4 mph - N/A   Overcast
5:15 AM 46.0 °F 40.6 °F 45.0 °F 96% 30.24 in 2.5 mi NNW 11.5 mph - 0.00 in Rain Light Rain
5:35 AM 45.0 °F 37.6 °F 44.1 °F 97% 30.25 in 1.8 mi NNW 17.3 mph - 0.00 in Rain Light Rain
5:45 AM 44.1 °F 36.5 °F 44.1 °F 100% 30.25 in 2.0 mi NNW 17.3 mph - 0.00 in Rain Light Rain
5:53 AM 44.1 °F 37.1 °F 43.0 °F 96% 30.27 in 2.0 mi NNW 15.0 mph - 0.00 in Rain Light Rain
6:16 AM 43.0 °F 34.8 °F 42.1 °F 97% 30.26 in 2.0 mi NNW 18.4 mph - 0.00 in   Overcast
6:31 AM 43.0 °F 35.4 °F 42.1 °F 97% 30.28 in 2.5 mi NNW 16.1 mph - 0.00 in   Overcast
6:38 AM 42.1 °F 34.9 °F 42.1 °F 100% 30.28 in 3.0 mi NNW 13.8 mph - 0.00 in   Overcast
6:53 AM 42.1 °F 34.9 °F 42.1 °F 100% 30.29 in 3.0 mi NNW 13.8 mph - 0.00 in   Overcast
7:49 AM 42.8 °F 33.8 °F 39.2 °F 87% 30.31 in 2.5 mi NNW 21.9 mph - N/A   Overcast
7:53 AM 42.1 °F 34.2 °F 39.9 °F 92% 30.32 in 2.5 mi NNW 16.1 mph - N/A   Overcast
8:35 AM 42.1 °F 33.3 °F 39.9 °F 92% 30.32 in 3.0 mi NNW 19.6 mph - N/A   Overcast
8:48 AM 42.8 °F 35.1 °F 39.2 °F 87% 30.33 in 1.8 mi NNW 16.1 mph - N/A   Overcast
8:53 AM 42.1 °F 33.6 °F 39.9 °F 92% 30.35 in 1.8 mi NNW 18.4 mph 24.2 mph N/A   Overcast
9:03 AM 41.0 °F 32.2 °F 39.9 °F 96% 30.34 in 2.5 mi NNW 18.4 mph - N/A   Overcast
9:11 AM 42.1 °F 33.6 °F 39.9 °F 92% 30.34 in 3.0 mi NNW 18.4 mph - N/A   Overcast
9:44 AM 41.0 °F 32.5 °F 39.9 °F 96% 30.35 in 1.8 mi NNW 17.3 mph - N/A   Overcast
9:53 AM 41.0 °F 32.5 °F 39.9 °F 96% 30.37 in 2.5 mi NNW 17.3 mph 26.5 mph N/A   Overcast
10:02 AM 41.0 °F 31.9 °F 39.0 °F 93% 30.36 in 4.0 mi NNW 19.6 mph - N/A   Overcast
10:13 AM 41.0 °F 32.2 °F 39.0 °F 93% 30.36 in 5.0 mi North 18.4 mph - N/A   Overcast
10:30 AM 41.0 °F 31.6 °F 37.9 °F 89% 30.37 in 4.0 mi NNW 20.7 mph - N/A   Overcast
10:53 AM 41.0 °F 31.6 °F 37.9 °F 89% 30.38 in 6.0 mi North 20.7 mph 25.3 mph N/A   Overcast
11:53 AM 39.9 °F 29.7 °F 37.0 °F 89% 30.39 in 10.0 mi NNW 23.0 mph - N/A   Overcast
12:36 PM 39.9 °F 30.5 °F 37.0 °F 89% 30.37 in 10.0 mi NNW 19.6 mph - N/A   Overcast
12:46 PM 39.9 °F 30.5 °F 37.0 °F 89% 30.37 in 10.0 mi North 19.6 mph - N/A   Overcast
12:53 PM 39.9 °F 30.5 °F 37.0 °F 89% 30.38 in 10.0 mi North 19.6 mph - N/A   Overcast
1:53 PM 39.9 °F 31.8 °F 37.0 °F 89% 30.39 in 10.0 mi North 15.0 mph - N/A   Overcast
2:53 PM 39.0 °F 30.3 °F 36.0 °F 89% 30.40 in 10.0 mi North 16.1 mph - N/A   Overcast
3:40 PM 39.0 °F 31.0 °F 35.1 °F 86% 30.41 in 10.0 mi North 13.8 mph - N/A   Overcast
3:53 PM 39.0 °F 29.6 °F 35.1 °F 86% 30.43 in 10.0 mi North 18.4 mph 26.5 mph N/A   Overcast
4:21 PM 37.9 °F 27.6 °F 34.0 °F 86% 30.43 in 10.0 mi NNW 20.7 mph 27.6 mph N/A   Overcast
4:53 PM 37.0 °F 27.4 °F 33.1 °F 86% 30.46 in 10.0 mi North 17.3 mph - N/A   Overcast
5:04 PM 37.0 °F 27.0 °F 33.1 °F 86% 30.45 in 10.0 mi NNW 18.4 mph - N/A   Overcast
5:53 PM 37.0 °F 28.5 °F 30.9 °F 79% 30.48 in 10.0 mi North 13.8 mph - N/A   Overcast
6:53 PM 37.0 °F 29.8 °F 33.1 °F 86% 30.49 in 10.0 mi NNW 10.4 mph - N/A   Overcast
7:53 PM 36.0 °F 28.0 °F 30.9 °F 82% 30.49 in 10.0 mi North 11.5 mph - N/A   Overcast
8:53 PM 35.1 °F 26.4 °F 30.0 °F 82% 30.48 in 10.0 mi North 12.7 mph - N/A   Overcast
9:48 PM 33.8 °F 25.8 °F 30.2 °F 87% 30.47 in 10.0 mi North 10.4 mph - N/A   Scattered Clouds
9:53 PM 33.1 °F 24.4 °F 30.0 °F 89% 30.49 in 10.0 mi North 11.5 mph - N/A   Partly Cloudy
10:53 PM 30.9 °F 22.2 °F 28.0 °F 89% 30.49 in 10.0 mi North 10.4 mph - N/A   Clear
11:53 PM 30.0 °F 22.4 °F 28.0 °F 92% 30.49 in 10.0 mi NNW 8.1 mph - N/A   Clear